Regional Weather Roundup
Issued by NWS

Home | Current Version | Previous Version | Text Only | Print | Product List | Glossary Off
Versions: 1 2 3 4 5 6 7 8 9 10 11 12 13 14 15 16 17 18 19 20 21 22 23 24 25 26 27 28 29 30 31 32 33 34 35 36 37 38 39 40 41 42 43 44 45 46 47 48 49 50

000
ASUS43 KMKX 012321
RWRWI

WISCONSIN REGIONAL WEATHER ROUNDUP
NATIONAL WEATHER SERVICE MILWAUKEE/SULLIVAN WI
600 PM CDT WED OCT 01 2014

NOTE: "FAIR" INDICATES FEW OR NO CLOUDS BELOW 12,000 FEET WITH NO
SIGNIFICANT WEATHER AND/OR OBSTRUCTIONS TO VISIBILITY.

WIZ001-002-006>008-014>016-023>028-020000-
NORTHWEST WISCONSIN

CITY           SKY/WX    TMP DP  RH WIND       PRES   REMARKS
SUPERIOR ARPT  CLOUDY    52  51  97 CALM      29.79S
ASHLAND        CLOUDY    52  51  97 E3        29.81F
HAYWARD        CLOUDY    53  52  96 S6        29.82R
SIREN          CLOUDY    53  51  95 SW5       29.81R
CUMBERLAND     CLOUDY    52  50  93 S7        29.81S FOG
RICE LAKE      CLOUDY    53  52  95 SE7       29.83S FOG
CHETEK         CLOUDY    54  53  97 SE6       29.82S
LADYSMITH      CLOUDY    55  54  95 S5        29.85R
EAU CLAIRE     CLOUDY    56  54  93 S5        29.82R
MENOMONIE      CLOUDY    55  54  95 SE3       29.82R FOG
NEW RICHMOND   CLOUDY    55  54  97 S6        29.81R FOG
OSCEOLA        CLOUDY    55  55 100 SE6       29.83R FOG
$$

WIZ003>005-009-010-017-018-020000-
NORTH CENTRAL WISCONSIN

CITY           SKY/WX    TMP DP  RH WIND       PRES   REMARKS
MANITOWISH WTR CLOUDY    53  53 100 S7        29.84R
ARBOR VITAE    DRIZZLE   55  54  94 S6        29.85R
WOODRUFF       DRIZZLE   55  54  94 S6        29.85R
RHINELANDER    CLOUDY    55  51  86 SE8       29.87R
EAGLE RIVER    DRIZZLE   54  49  84 SE9       29.85S
LAND O LAKES   CLOUDY    54  50  87 SE8       29.86F
PHILLIPS       CLOUDY    54  53  96 S8        29.83R
TOMAHAWK       CLOUDY    55  52  90 SE3       29.85S
MEDFORD        LGT RAIN  55  52  92 SE6       29.84S
MERRILL        CLOUDY    59  53  80 SE8       29.85S
$$

WIZ029-030-035-036-043>047-020000-
CENTRAL WISCONSIN

CITY           SKY/WX    TMP DP  RH WIND       PRES   REMARKS
WAUSAU         CLOUDY    60  51  72 SE12      29.85R
MOSINEE        CLOUDY    59  54  82 SE7       29.87S
MARSHFIELD     RAIN      58  54  86 SE9       29.85S FOG
STEVENS POINT  CLOUDY    59  51  74 SE8       29.86F
WAUPACA        CLOUDY    63  52  68 E13G18    29.88S
WAUTOMA        NOT AVBL
WISC RAPIDS    LGT RAIN  61  53  75 SE6       29.86F
CAMP DOUGLAS   MOCLDY    63  61  94 E5        29.84R
$$

WIZ011>013-019>022-031-037>040-048>050-020000-
NORTHEAST WISCONSIN

CITY           SKY/WX    TMP DP  RH WIND       PRES   REMARKS
ANTIGO         CLOUDY    56  52  87 SE10      29.89R
SHAWANO        CLOUDY    59  52  79 SE7       29.91R
OCONTO         CLOUDY    56  53  90 SE10      29.92S
STURGEON BAY   NOT AVBL
GREEN BAY      CLOUDY    57  52  83 SE12      29.92S
MANITOWOC      NOT AVBL
APPLETON       MOCLDY    59  50  72 SE13      29.89F
CLINTONVILLE   CLOUDY    59  52  77 SE9       29.89S
OSHKOSH        CLOUDY    59  51  75 SE12      29.89S
$$

WIZ032>034-041-042-053>061-020000-
SOUTHWEST WISCONSIN

CITY           SKY/WX    TMP DP  RH WIND       PRES   REMARKS
LA CROSSE      CLOUDY    65  56  72 E6        29.81S
SPARTA         CLOUDY    63  55  76 CALM      29.83S
VIROQUA        CLOUDY    64  55  71 SE5       29.83S
BOSCOBEL       CLOUDY    72  56  57 S5        29.82S
PRAIRIE DU CHI CLOUDY    69  55  61 SE5       29.81S
PLATTEVILLE    MOCLDY    71  58  63 SE12      29.84S
$$

WIZ056-057-062-063-064-067-068-020000-
SOUTH CENTRAL WISCONSIN

CITY           SKY/WX    TMP DP  RH WIND       PRES   REMARKS
REEDSBURG      MOCLDY    67  55  67 SE5       29.84S
BARABOO/DELLS  CLOUDY    66  52  60 SE6       29.85S
LONE ROCK      CLOUDY    73  55  53 E6        29.83S
MINERAL POINT  CLOUDY    70  55  60 SE6       29.84S
MADISON        CLOUDY    68  54  60 SE10      29.86R
MIDDLETON      CLOUDY    70  53  54 SE8       29.86R
WATERTOWN      CLOUDY    61  52  74 SE9       29.89R
MONROE         CLOUDY    68  55  64 E5        29.85S
JANESVILLE     CLEAR     70  54  56 SE12      29.86S
$$

WIZ051-052-058>065-066-070>072-020000-
SOUTHEAST WISCONSIN

CITY           SKY/WX    TMP DP  RH WIND       PRES   REMARKS
MILWAUKEE      MOCLDY    60  53  77 SE12      29.92F
WAUKESHA       CLEAR     57  50  77 SE12      29.92S
MILWAUKEE/TIMM PTCLDY    59  50  72 SE8       29.92F
RACINE         PTCLDY    61  53  75 SE12      29.93F
BURLINGTON     MOCLDY    59  51  74 SE7       29.90S
KENOSHA        PTCLDY    61  53  75 SE8       29.92S
FOND DU LAC    CLOUDY    59  50  72 SE15G23   29.90R
SHEBOYGAN      CLOUDY    56  50  80 SE9       29.93F
WEST BEND      MOCLDY    55  50  82 SE8       29.92R
JUNEAU         CLOUDY    61  52  73 SE12      29.90R
$$

LSZ147-162-020000-
LAKE SUPERIOR

STATION/POSITION TIME  TEMP    WIND        PRES    WAVE
                       AIR SEA DIR/SP/G            HT/PER
                 (UTC) (F)     (DEG/KT/KT) (MB)    (FT/S)
W MID LAKE BUOY  2250   49 50  340/  4/  6 1010.6R   1
DEVILS ISLAND    2300   50     100/ 10/ 11 1009.6F
SAXON HARBOR     2200   53        CALM     1010.2R
$$

LMZ867-665-643>646-020000-
LAKE MICHIGAN

STATION/POSITION TIME  TEMP    WIND        PRES    WAVE
                       AIR SEA DIR/SP/G            HT/PER
                 (UTC) (F)     (DEG/KT/KT) (MB)    (FT/S)
CHAMBERS ISLAND  2200   57     140/  6/ 15 1013.9F
S GREEN BAY BUOY 2030   57                 1014.6
N MID LAKE BUOY  2250   56 58  220/  8/ 10 1014.7R
NORTHPORT PIER   2200   56     160/  6/ 11 1014.2F
KEWAUNEE LAKESHO 2300   55     160/ 15/ 19 1012.8F
SHEBOYGAN LAKESH 2300   56 58  140/ 13/ 14 1013.8F
PORT WASHINGTON  2200   59     150/ 11/ 14 1014.2S
MILWAUKEE LAKESH 2300   59     140/ 11/ 12   N/A
S MID LAKE BUOY  2250   61 61  100/ 12/ 14 1013.3F   2/ 3
KENOSHA   LAKESH 2300   61     130/ 11/ 14 1012.9S
$$

TC  - TEMPERATURE IN CELSIUS
VSB - VISIBILITY IN STATUTE MILES
WCI - WIND CHILL INDEX
HX  - HEAT INDEX



USA.gov is the U.S. government's official web portal to all federal, state and local government web resources and services.